Погода в Нижнеиртышском

Россия / Омская область     55°26′56″N   73°15′04″E
В апреле 2022 года жителям России запретили посещать сайт meteo.paraplan.net по решению Генеральной прокуратуры. Аудитория сайта уменьшилась в 10 раз. Владельцы сайта не видят смысла в поддержке погодного сервера в таких условиях. Сайт будет закрыт в октябре.
темп.,
°C
ветер,
м/с
пор.,
м/с
влажн.,
%
обл.,
%
осадки,
мм/ч
давл.,
гПа
погр.,
м
26 сентября, пн
пн2600:00+6св61070100 0.0 1015551
03:00+4всв51069100 0.0 1016541
06:00+4всв61167100 0.1 1016553
09:00+4всв71163100 0.1 1015703
12:00+4в71165100 0.4 1013815
15:00+2всв61287100 1.7 1012673
18:000всв513100100 7.8 1012473
21:00+1всв61399100 3.9 1011590
27 сентября, вт
вт2700:00+1всв51299100 6.0 1011531
03:00+1всв61199100 0.6 1009455
06:000всв61199100 1.4 1009460
09:000св61199100 3.1 1009493
12:00+1св610100100 3.8 1010578
15:00+2св599896 0.4 1011664
18:00+2ссв498284 0.4 1013332
21:00+1с5118193 0.0 1014288
28 сентября, ср
ср2800:00−2с49865 0.0 1016200
03:00−4ссз38919 0.0 1017153
06:00−4ссз379321 0.0 1018136
09:00−2ссз358599 0.0 1019232
12:00+1сз3472100 0.0 1019899
15:00+2сз4465100 0.2 10191100
18:00+1сз4675100 0.5 1020539
21:00−1сз3688100 0.1 1020395
29 сентября, чт
чт2900:00−1ссз3697100 0.3 1020374
03:00−2сз4796100 0.2 1020351
06:00−2ссз599688 0.5 1021487
09:00−1ссз589274 0.1 1022458
12:00+1ссз5669100 0.4 10231265
15:00+2ссз6762100 0.3 10241333
18:00+1ссз486997 0.5 1025387
21:00−2сз378266 0.1 1027133
30 сентября, пт
пт3000:00−3ссз35875 0.1 102886
03:00−3ссз35905 0.0 102990
06:00−4ссз36915 0.0 1030126
09:00−1ссз47815 0.0 1032264
12:00+3ссз45605 0.0 10331052
15:00+5ссз5650100 0.0 10331542
18:00+3сз36615 0.0 1034113
21:00−1ссз35715 0.0 103574